Preview of NWS' New Version of Forecast
This preview is not operational and should not be used for support decisions.

Regional Weather Roundup (RWR)

Issued by National Weather Service (NWS)

                            
000
ASUS46 KSEW 200710
RWRWA 

WASHINGTON REGIONAL WEATHER ROUNDUP
NATIONAL WEATHER SERVICE SEATTLE WA
1200 AM PDT TUE AUG 20 2019

NOTE:"FAIR" INDICATES FEW OR NO CLOUDS BELOW 12,000 FEET WITH NO 
SIGNIFICANT WEATHER AND/OR OBSTRUCTIONS TO VISIBILITY.

WAZ507-509-555>559-200800-
SEATTLE, TACOMA, EVERETT, AND VICINITY
  
CITY           SKY/WX    TMP DP  RH WIND       PRES   REMARKS
EVERETT        PTCLDY    58  52  80 CALM      29.98F                  
BOEING FIELD   PTCLDY    63  51  65 NW3       29.96F                  
RENTON         CLEAR     66  54  65 N9        29.96S                  
SEATAC AIRPORT PTCLDY    63  52  67 N9        29.97F                  
JBLM-MCCHORD   NOT AVBL                                               
PUYALLUP       FAIR      57  55  94 CALM      29.97S                  
BREMERTON      PTCLDY    60  51  72 NE7       29.98S                  
JBLM-FT LEWIS  NOT AVBL                                               
TACOMA NARROWS CLEAR     61  51  70 N9        29.97S                  
$$
 
WAZ001-503-506-510-514-515-200800-
NORTH INTERIOR
  
CITY           SKY/WX    TMP DP  RH WIND       PRES   REMARKS
BELLINGHAM     MOCLDY    58  52  80 CALM      29.98S                  
FRIDAY HARBOR  MOCLDY    53  49  86 CALM      29.98F                  
EASTSOUND      MOCLDY    59  54  82 SE3       29.96F                  
PORT ANGELES   PTCLDY    51  50  96 SW3       29.99S                  
EDIZ HOOK      FAIR      56  52  86 CALM      29.98S                  
PORT TOWNSEND  FAIR      52  48  87 CALM      29.97S                  
NAS WHIDBEY    MOCLDY    57  50  77 CALM      30.02S                  
ARLINGTON      PTCLDY    57  51  80 NW3       29.98S                  
BURLINGTON     CLEAR     57  52  82 CALM      29.98S                  
$$
 
WAZ020-022-039-040-504-511-512-200800-
SOUTHWEST INTERIOR
  
CITY           SKY/WX    TMP DP  RH WIND       PRES   REMARKS
SHELTON        CLEAR     55  51  86 CALM      29.95S                  
OLYMPIA        CLEAR     62  53  72 NE5       29.96S                  
CHEHALIS       FAIR      57  55  94 CALM      29.96S                  
KELSO          CLEAR     61  57  87 CALM      29.96S                  
VANCOUVER      CLEAR     63  55  75 CALM      29.94R                  
SCAPPOOSE, OR  CLEAR     60  54  80 CALM      29.93R                  
PORTLAND, OR   CLEAR     67  56  67 CALM      29.94R                  
$$
 
WAZ021-516-517-200800-
WASHINGTON COAST
  
CITY           SKY/WX    TMP DP  RH WIND       PRES   REMARKS
FORKS          CLEAR     53  50  89 CALM      29.97F                  
HOQUIAM        CLEAR     57  54  89 CALM      29.97F                  
ASTORIA, OR    CLEAR     56  53  90 SE3       29.95F                  
$$
 
WAZ019-023-024-040-567>569-200800-
CASCADE MOUNTAINS AND COLUMBIA GORGE
  
CITY           SKY/WX    TMP DP  RH WIND       PRES   REMARKS
STAMPEDE PASS  CLEAR     56  47  71 CALM      30.06S                  
TROUTDALE, OR  CLEAR     65  56  72 CALM      29.93S                  
HOOD RIVER, OR SUNNY     63  50  63 CALM      29.92R                  
THE DALLES, OR CLEAR     73  53  49 NW10      29.87R                  
$$

WAZ026-027-041>044-520-521-200800-
EAST SLOPES
  
CITY           SKY/WX    TMP DP  RH WIND       PRES   REMARKS
OMAK           CLEAR     66  41  40 NW9       29.91R                  
WENATCHEE      CLEAR     72  45  37 NW9       29.91R                  
ELLENSBURG     PTCLDY    66  50  56 NW8       29.94R                  
YAKIMA         PTCLDY    69  50  50 W8        29.90R                  
SUNNYSIDE ARPT MOSUNNY   64  55  73 CALM      29.87R                  
YAKIMA TC      NOT AVBL                                               
$$

WAZ028-034-035-200800-
COLUMBIA BASIN
  
CITY           SKY/WX    TMP DP  RH WIND       PRES   REMARKS
EPHRATA        CLEAR     67  48  50 CALM      29.89R                  
MOSES LAKE     CLEAR     67  52  58 NE3       29.90R                  
PASCO          PTCLDY    65  56  72 NE3       29.86R                  
RICHLAND ARPT  MOSUNNY   69  56  63 N5        29.86                   
HERMISTON, OR  PTCLDY    64  47  53 SE3       29.87R                  
$$

WAZ036>038-200800-
NORTHEAST WASHINGTON
  
CITY           SKY/WX    TMP DP  RH WIND       PRES   REMARKS
SPOKANE GEIGER PTCLDY    68  41  37 CALM      29.97R                  
SPOKANE FELTS  CLEAR     63  44  50 N3        29.96R                  
FAIRCHILD AFB  NOT AVBL                                               
COEURDALENE,ID CLEAR     60  47  61 NE5       29.98R                  
DEER PARK      CLEAR     54  44  69 N5        29.97R                  
$$

WAZ029>033-200800-
SOUTHEAST WASHINGTON
  
CITY           SKY/WX    TMP DP  RH WIND       PRES   REMARKS
PULLMAN        CLEAR     58  43  57 CALM      29.99S                  
LEWISTON, ID   CLEAR     72  41  32 CALM      29.92S                  
WALLA WALLA    CLEAR     69  46  43 E9        29.89R                  
PENDLETON, OR  CLEAR     67  45  45 SE9       29.90S                  
$$